Location: Brno
(49.2000°N, 16.6330°E)
Time: 09:18:11
(UTC+02:00)

Vanguard 3 - Pass Details

Date: 26 July 2021
Orbit: 510 x 3260 km, 33.3° (Epoch: 18 September)

Event Time Altitude Azimuth Distance (km) Brightness Sun altitude
Rises 00:23:59 0° 267° (W) 7,202 12.1 -20.9°
Reaches altitude 10° 00:29:18 10° 261° (W) 6,198 11.6 -21.0°
Maximum altitude 00:46:14 39° 202° (SSW) 3,743 10.0 -21.3°
Enters shadow 00:54:43 23° 153° (SSE) 4,020 10.1 -21.4°
